Time,TemperatureF,DewpointF,PressureIn,WindDirection,WindDirectionDegrees,WindSpeedMPH,WindSpeedGustMPH,Humidity,HourlyPrecipIn,Conditions,Clouds,dailyrainin,SoftwareType,DateUTC
2013-02-01 00:03:00,40.5,38.4,30.24,SW,215,0.0,0.0,92,0.00,,---,0.00,VWS V14.01,2013-02-01 06:03:00,
2013-02-01 00:08:00,40.3,38.2,30.24,SW,215,0.0,0.0,92,0.00,,---,0.00,VWS V14.01,2013-02-01 06:08:00,
2013-02-01 00:13:00,40.0,37.9,30.24,SW,215,0.0,0.0,92,0.00,,---,0.00,VWS V14.01,2013-02-01 06:13:00,
2013-02-01 00:18:00,39.7,37.6,30.24,SW,215,0.0,0.0,92,0.00,,---,0.00,VWS V14.01,2013-02-01 06:18:00,
2013-02-01 00:23:00,39.4,37.5,30.24,SW,215,0.0,0.0,93,0.00,,---,0.00,VWS V14.01,2013-02-01 06:23:00,
2013-02-01 00:28:00,39.2,37.3,30.24,SW,215,0.0,0.0,93,0.00,,---,0.00,VWS V14.01,2013-02-01 06:28:00,
2013-02-01 00:33:00,39.0,37.2,30.23,SW,215,0.0,0.0,93,0.00,,---,0.00,VWS V14.01,2013-02-01 06:33:00,
2013-02-01 00:38:00,39.0,37.4,30.24,SW,215,0.0,0.0,94,0.00,,---,0.00,VWS V14.01,2013-02-01 06:38:00,
2013-02-01 00:43:00,39.0,37.4,30.24,SW,215,0.0,0.0,94,0.00,,---,0.00,VWS V14.01,2013-02-01 06:43:00,
2013-02-01 00:48:00,38.8,37.2,30.24,SW,215,0.0,0.0,94,0.00,,---,0.00,VWS V14.01,2013-02-01 06:48:00,
2013-02-01 00:53:00,38.6,37.0,30.25,SW,215,0.0,0.0,94,0.00,,---,0.00,VWS V14.01,2013-02-01 06:53:00,
2013-02-01 00:58:00,38.4,36.8,30.25,SW,216,0.0,0.0,94,0.00,,---,0.00,VWS V14.01,2013-02-01 06:58:00,
2013-02-01 01:03:00,38.2,36.6,30.25,SW,215,0.0,0.0,94,0.00,,---,0.00,VWS V14.01,2013-02-01 07:03:00,
2013-02-01 01:08:00,38.0,36.7,30.25,SW,215,0.0,0.0,95,0.00,,---,0.00,VWS V14.01,2013-02-01 07:08:00,
2013-02-01 01:13:00,37.8,36.5,30.25,SW,215,0.0,0.0,95,0.00,,---,0.00,VWS V14.01,2013-02-01 07:13:00,
2013-02-01 01:18:00,37.6,36.3,30.25,SW,215,0.0,0.0,95,0.00,,---,0.00,VWS V14.01,2013-02-01 07:18:00,
2013-02-01 01:23:00,37.3,36.0,30.25,SW,215,0.0,0.0,95,0.00,,---,0.00,VWS V14.01,2013-02-01 07:23:00,
2013-02-01 01:28:00,37.2,35.9,30.25,SW,215,0.0,0.0,95,0.00,,---,0.00,VWS V14.01,2013-02-01 07:28:00,
2013-02-01 01:33:00,37.2,35.9,30.25,SW,215,0.0,0.0,95,0.00,,---,0.00,VWS V14.01,2013-02-01 07:33:00,
2013-02-01 01:38:00,37.1,35.8,30.25,SW,215,0.0,0.0,95,0.00,,---,0.00,VWS V14.01,2013-02-01 07:38:00,
2013-02-01 01:43:00,36.9,35.6,30.26,SW,215,0.0,0.0,95,0.00,,---,0.00,VWS V14.01,2013-02-01 07:43:00,
2013-02-01 01:48:00,36.8,35.5,30.26,SW,215,0.0,0.0,95,0.00,,---,0.00,VWS V14.01,2013-02-01 07:48:00,
2013-02-01 01:53:00,36.9,35.9,30.25,SW,215,0.0,0.0,96,0.00,,---,0.00,VWS V14.01,2013-02-01 07:53:00,
2013-02-01 01:58:00,37.0,36.0,30.25,SW,215,0.0,0.0,96,0.00,,---,0.00,VWS V14.01,2013-02-01 07:58:00,
2013-02-01 02:03:00,37.1,36.1,30.25,SW,215,0.0,0.0,96,0.00,,---,0.00,VWS V14.01,2013-02-01 08:03:00,
2013-02-01 02:07:00,37.2,36.2,30.25,SW,215,0.0,0.0,96,0.00,,---,0.00,VWS V14.01,2013-02-01 08:07:00,
2013-02-01 02:12:00,37.2,36.2,30.25,SW,215,0.0,0.0,96,0.00,,---,0.00,VWS V14.01,2013-02-01 08:12:00,
2013-02-01 02:17:00,37.2,36.2,30.25,SW,215,0.0,0.0,96,0.00,,---,0.00,VWS V14.01,2013-02-01 08:17:00,
2013-02-01 02:22:00,37.2,36.2,30.25,SW,215,0.0,0.0,96,0.00,,---,0.00,VWS V14.01,2013-02-01 08:22:00,
2013-02-01 02:27:00,37.6,36.6,30.25,SW,215,0.0,0.0,96,0.00,,---,0.00,VWS V14.01,2013-02-01 08:27:00,
2013-02-01 02:32:00,37.7,36.7,30.25,SW,215,0.0,0.0,96,0.00,,---,0.00,VWS V14.01,2013-02-01 08:32:00,
2013-02-01 02:37:00,37.7,36.7,30.25,SW,215,0.0,0.0,96,0.00,,---,0.00,VWS V14.01,2013-02-01 08:37:00,
2013-02-01 02:42:00,37.7,36.7,30.25,SW,215,0.0,0.0,96,0.00,,---,0.00,VWS V14.01,2013-02-01 08:42:00,
2013-02-01 02:47:00,37.6,36.8,30.25,SW,215,0.0,0.0,97,0.00,,---,0.00,VWS V14.01,2013-02-01 08:47:00,
2013-02-01 02:52:00,37.6,36.8,30.24,SW,215,0.0,0.0,97,0.00,,---,0.00,VWS V14.01,2013-02-01 08:52:00,
2013-02-01 02:57:00,37.5,36.7,30.24,SW,216,0.0,0.0,97,0.00,,---,0.00,VWS V14.01,2013-02-01 08:57:00,
2013-02-01 03:02:00,37.3,36.5,30.24,SW,216,0.0,0.0,97,0.00,,---,0.00,VWS V14.01,2013-02-01 09:02:00,
2013-02-01 03:07:00,37.2,36.2,30.23,SW,215,0.0,0.0,96,0.00,,---,0.00,VWS V14.01,2013-02-01 09:07:00,
2013-02-01 03:12:00,37.0,36.2,30.23,SW,215,0.0,0.0,97,0.00,,---,0.00,VWS V14.01,2013-02-01 09:12:00,
2013-02-01 03:17:00,36.9,36.1,30.23,SW,215,0.0,0.0,97,0.00,,---,0.00,VWS V14.01,2013-02-01 09:17:00,
2013-02-01 03:22:00,36.9,36.1,30.24,SW,215,0.0,0.0,97,0.00,,---,0.00,VWS V14.01,2013-02-01 09:22:00,
2013-02-01 03:27:00,36.9,36.1,30.24,SW,215,0.0,0.0,97,0.00,,---,0.00,VWS V14.01,2013-02-01 09:27:00,
2013-02-01 03:32:00,36.8,36.0,30.24,SW,214,0.0,0.0,97,0.00,,---,0.00,VWS V14.01,2013-02-01 09:32:00,
2013-02-01 03:37:00,36.8,36.0,30.23,SW,216,0.0,0.0,97,0.00,,---,0.00,VWS V14.01,2013-02-01 09:37:00,
2013-02-01 03:42:00,36.8,36.0,30.24,SW,215,0.0,0.0,97,0.00,,---,0.00,VWS V14.01,2013-02-01 09:42:00,
2013-02-01 03:47:00,36.7,35.9,30.24,SW,215,0.0,0.0,97,0.00,,---,0.00,VWS V14.01,2013-02-01 09:47:00,
2013-02-01 03:52:00,36.6,35.8,30.23,SW,215,0.0,0.0,97,0.00,,---,0.00,VWS V14.01,2013-02-01 09:52:00,
2013-02-01 03:57:00,36.4,35.6,30.23,SW,215,0.0,0.0,97,0.00,,---,0.00,VWS V14.01,2013-02-01 09:57:00,
2013-02-01 04:02:00,36.4,35.6,30.24,SW,215,0.0,0.0,97,0.00,,---,0.00,VWS V14.01,2013-02-01 10:02:00,
2013-02-01 04:07:00,36.4,35.6,30.24,SW,215,0.0,0.0,97,0.00,,---,0.00,VWS V14.01,2013-02-01 10:07:00,
2013-02-01 04:12:00,36.3,35.5,30.23,SW,214,0.0,0.0,97,0.00,,---,0.00,VWS V14.01,2013-02-01 10:12:00,
2013-02-01 04:17:00,36.2,35.4,30.23,SW,215,0.0,0.0,97,0.00,,---,0.00,VWS V14.01,2013-02-01 10:17:00,
2013-02-01 04:22:00,36.2,35.4,30.23,SW,215,0.0,0.0,97,0.00,,---,0.00,VWS V14.01,2013-02-01 10:22:00,
2013-02-01 04:27:00,36.2,35.4,30.23,SW,215,0.0,0.0,97,0.00,,---,0.00,VWS V14.01,2013-02-01 10:27:00,
2013-02-01 04:32:00,36.2,35.4,30.24,SW,215,0.0,0.0,97,0.00,,---,0.00,VWS V14.01,2013-02-01 10:32:00,
2013-02-01 04:37:00,36.2,35.4,30.23,SW,215,0.0,0.0,97,0.00,,---,0.00,VWS V14.01,2013-02-01 10:37:00,
2013-02-01 04:42:00,36.3,35.5,30.24,SW,215,0.0,0.0,97,0.00,,---,0.00,VWS V14.01,2013-02-01 10:42:00,
2013-02-01 04:47:00,36.4,35.6,30.24,SW,214,0.0,0.0,97,0.00,,---,0.00,VWS V14.01,2013-02-01 10:47:00,
2013-02-01 04:52:00,36.4,35.6,30.25,SW,214,0.0,0.0,97,0.00,,---,0.00,VWS V14.01,2013-02-01 10:52:00,
2013-02-01 04:57:00,36.3,35.5,30.25,SW,215,0.0,0.0,97,0.00,,---,0.00,VWS V14.01,2013-02-01 10:57:00,
2013-02-01 05:02:00,36.3,35.5,30.25,SW,215,0.0,0.0,97,0.00,,---,0.00,VWS V14.01,2013-02-01 11:02:00,
2013-02-01 05:07:00,36.3,35.5,30.25,SW,215,0.0,0.0,97,0.00,,---,0.00,VWS V14.01,2013-02-01 11:07:00,
2013-02-01 05:12:00,36.4,35.6,30.25,SW,215,0.0,0.0,97,0.00,,---,0.00,VWS V14.01,2013-02-01 11:12:00,
2013-02-01 05:17:00,36.4,35.6,30.25,SW,215,0.0,0.0,97,0.00,,---,0.00,VWS V14.01,2013-02-01 11:17:00,
2013-02-01 05:22:00,36.4,35.6,30.26,SW,215,0.0,0.0,97,0.00,,---,0.00,VWS V14.01,2013-02-01 11:22:00,
2013-02-01 05:27:00,36.4,35.6,30.26,SW,215,0.0,0.0,97,0.00,,---,0.00,VWS V14.01,2013-02-01 11:27:00,
2013-02-01 05:32:00,36.5,35.7,30.26,SW,215,0.0,0.0,97,0.00,,---,0.00,VWS V14.01,2013-02-01 11:32:00,
2013-02-01 05:37:00,36.5,36.0,30.26,SW,215,0.0,0.0,98,0.00,,---,0.00,VWS V14.01,2013-02-01 11:37:00,
2013-02-01 05:42:00,36.5,36.0,30.26,SW,215,0.0,0.0,98,0.00,,---,0.00,VWS V14.01,2013-02-01 11:42:00,
2013-02-01 05:47:00,36.5,36.0,30.26,SW,215,0.0,0.0,98,0.00,,---,0.00,VWS V14.01,2013-02-01 11:47:00,
2013-02-01 05:52:00,36.7,36.2,30.27,SW,215,0.0,0.0,98,0.00,,---,0.00,VWS V14.01,2013-02-01 11:52:00,
2013-02-01 12:30:00,62.3,43.4,30.27,West,270,1.0,3.0,50,0.00,,---,0.00,VWS V14.01,2013-02-01 18:30:00,
2013-02-01 13:21:00,62.3,43.4,30.27,West,270,1.0,3.0,50,0.00,,---,0.00,VWS V14.01,2013-02-01 19:21:00,
2013-02-01 13:26:00,63.7,42.5,30.25,East,101,0.0,2.0,46,0.00,,---,0.00,VWS V14.01,2013-02-01 19:26:00,
2013-02-01 13:31:00,63.7,44.2,30.25,NNW,329,0.0,2.0,49,0.00,,---,0.00,VWS V14.01,2013-02-01 19:31:00,
2013-02-01 13:36:00,64.1,42.9,30.25,NW,315,0.0,3.0,46,0.00,,---,0.00,VWS V14.01,2013-02-01 19:36:00,
2013-02-01 13:41:00,64.2,43.0,30.25,East,98,1.0,3.0,46,0.00,,---,0.00,VWS V14.01,2013-02-01 19:41:00,
2013-02-01 13:46:00,64.2,43.0,30.25,SW,228,0.0,3.0,46,0.00,,---,0.00,VWS V14.01,2013-02-01 19:46:00,
2013-02-01 13:51:00,64.1,43.5,30.25,East,89,2.0,3.0,47,0.00,,---,0.00,VWS V14.01,2013-02-01 19:51:00,
2013-02-01 13:56:00,63.9,43.3,30.25,SSE,166,0.0,3.0,47,0.00,,---,0.00,VWS V14.01,2013-02-01 19:56:00,
2013-02-01 14:01:00,63.2,43.7,30.25,SSW,205,0.0,4.0,49,0.00,,---,0.00,VWS V14.01,2013-02-01 20:01:00,
2013-02-01 14:06:00,63.2,43.2,30.25,ENE,77,0.0,1.0,48,0.00,,---,0.00,VWS V14.01,2013-02-01 20:06:00,
2013-02-01 14:11:00,63.0,43.0,30.25,NE,54,0.0,2.0,48,0.00,,---,0.00,VWS V14.01,2013-02-01 20:11:00,
2013-02-01 14:16:00,62.5,42.6,30.24,NW,321,2.0,4.0,48,0.00,,---,0.00,VWS V14.01,2013-02-01 20:16:00,
2013-02-01 14:21:00,62.1,42.7,30.25,NNE,33,1.0,4.0,49,0.00,,---,0.00,VWS V14.01,2013-02-01 20:21:00,
2013-02-01 14:26:00,61.7,42.4,30.25,WSW,255,0.0,4.0,49,0.00,,---,0.00,VWS V14.01,2013-02-01 20:26:00,
2013-02-01 14:31:00,61.3,43.0,30.24,NE,40,0.0,4.0,51,0.00,,---,0.00,VWS V14.01,2013-02-01 20:31:00,
2013-02-01 14:36:00,60.9,43.2,30.24,WNW,285,0.0,1.0,52,0.00,,---,0.00,VWS V14.01,2013-02-01 20:36:00,
2013-02-01 14:41:00,60.3,42.1,30.24,ESE,120,0.0,1.0,51,0.00,,---,0.00,VWS V14.01,2013-02-01 20:41:00,
2013-02-01 14:46:00,60.1,42.4,30.25,NW,319,1.0,2.0,52,0.00,,---,0.00,VWS V14.01,2013-02-01 20:46:00,
2013-02-01 14:51:00,59.9,42.2,30.25,NE,47,0.0,2.0,52,0.00,,---,0.00,VWS V14.01,2013-02-01 20:51:00,
2013-02-01 14:56:00,59.9,42.2,30.25,NW,319,0.0,2.0,52,0.00,,---,0.00,VWS V14.01,2013-02-01 20:56:00,
2013-02-01 15:01:00,59.9,42.7,30.25,WNW,285,0.0,2.0,53,0.00,,---,0.00,VWS V14.01,2013-02-01 21:01:00,
2013-02-01 15:05:00,59.9,42.2,30.25,WNW,298,0.0,1.0,52,0.00,,---,0.00,VWS V14.01,2013-02-01 21:05:00,
2013-02-01 15:10:00,59.8,44.5,30.25,WNW,294,0.0,1.0,57,0.00,,---,0.00,VWS V14.01,2013-02-01 21:10:00,
2013-02-01 15:15:00,59.5,43.8,30.25,WNW,293,0.0,1.0,56,0.00,,---,0.00,VWS V14.01,2013-02-01 21:15:00,
2013-02-01 15:20:00,59.2,44.0,30.24,WNW,293,0.0,1.0,57,0.00,,---,0.00,VWS V14.01,2013-02-01 21:20:00,
2013-02-01 15:25:00,58.8,43.6,30.24,WNW,297,0.0,1.0,57,0.00,,---,0.00,VWS V14.01,2013-02-01 21:25:00,
2013-02-01 15:30:00,58.5,43.8,30.24,WNW,293,0.0,1.0,58,0.00,,---,0.00,VWS V14.01,2013-02-01 21:30:00,
2013-02-01 15:35:00,58.3,43.6,30.24,WNW,294,0.0,0.0,58,0.00,,---,0.00,VWS V14.01,2013-02-01 21:35:00,
2013-02-01 15:40:00,58.2,42.6,30.24,WNW,294,0.0,0.0,56,0.00,,---,0.00,VWS V14.01,2013-02-01 21:40:00,
2013-02-01 15:45:00,58.2,43.5,30.24,WNW,293,0.0,0.0,58,0.00,,---,0.00,VWS V14.01,2013-02-01 21:45:00,
2013-02-01 15:50:00,58.2,44.8,30.24,WNW,294,0.0,0.0,61,0.00,,---,0.00,VWS V14.01,2013-02-01 21:50:00,
2013-02-01 15:55:00,58.0,45.1,30.24,WNW,294,0.0,0.0,62,0.00,,---,0.00,VWS V14.01,2013-02-01 21:55:00,
2013-02-01 16:00:00,57.8,43.1,30.24,WNW,294,0.0,0.0,58,0.00,,---,0.00,VWS V14.01,2013-02-01 22:00:00,
2013-02-01 16:05:00,57.6,45.1,30.23,WNW,294,0.0,0.0,63,0.00,,---,0.00,VWS V14.01,2013-02-01 22:05:00,
2013-02-01 16:10:00,57.6,45.1,30.24,WNW,294,0.0,0.0,63,0.00,,---,0.00,VWS V14.01,2013-02-01 22:10:00,
2013-02-01 16:15:00,57.5,46.2,30.24,WNW,297,0.0,0.0,66,0.00,,---,0.00,VWS V14.01,2013-02-01 22:15:00,
2013-02-01 16:20:00,57.2,46.4,30.24,WNW,297,0.0,0.0,67,0.00,,---,0.00,VWS V14.01,2013-02-01 22:20:00,
2013-02-01 16:25:00,57.0,46.9,30.24,WNW,296,0.0,0.0,69,0.00,,---,0.00,VWS V14.01,2013-02-01 22:25:00,
2013-02-01 16:30:00,56.7,47.4,30.24,WNW,297,0.0,0.0,71,0.00,,---,0.00,VWS V14.01,2013-02-01 22:30:00,
2013-02-01 16:35:00,56.3,46.3,30.23,WNW,297,0.0,0.0,69,0.00,,---,0.00,VWS V14.01,2013-02-01 22:35:00,
2013-02-01 16:40:00,56.0,47.1,30.23,WNW,297,0.0,0.0,72,0.00,,---,0.00,VWS V14.01,2013-02-01 22:40:00,
2013-02-01 16:45:00,55.6,46.7,30.23,WNW,297,0.0,0.0,72,0.00,,---,0.00,VWS V14.01,2013-02-01 22:45:00,
2013-02-01 16:50:00,55.1,46.6,30.23,WNW,297,0.0,0.0,73,0.00,,---,0.00,VWS V14.01,2013-02-01 22:50:00,
2013-02-01 16:55:00,54.7,46.6,30.23,WNW,296,0.0,0.0,74,0.00,,---,0.00,VWS V14.01,2013-02-01 22:55:00,
2013-02-01 17:00:00,54.1,46.4,30.24,WNW,297,0.0,0.0,75,0.00,,---,0.00,VWS V14.01,2013-02-01 23:00:00,
2013-02-01 17:05:00,53.6,45.5,30.23,WNW,297,0.0,0.0,74,0.00,,---,0.00,VWS V14.01,2013-02-01 23:05:00,
2013-02-01 17:10:00,53.1,45.4,30.24,WNW,296,0.0,0.0,75,0.00,,---,0.00,VWS V14.01,2013-02-01 23:10:00,
2013-02-01 17:15:00,52.6,45.3,30.24,WNW,297,0.0,0.0,76,0.00,,---,0.00,VWS V14.01,2013-02-01 23:15:00,
2013-02-01 17:20:00,51.9,44.9,30.24,WNW,297,0.0,0.0,77,0.00,,---,0.00,VWS V14.01,2013-02-01 23:20:00,
2013-02-01 17:25:00,51.2,44.6,30.24,WNW,297,0.0,0.0,78,0.00,,---,0.00,VWS V14.01,2013-02-01 23:25:00,
2013-02-01 17:30:00,50.7,45.1,30.24,WNW,294,0.0,0.0,81,0.00,,---,0.00,VWS V14.01,2013-02-01 23:30:00,
2013-02-01 17:35:00,50.1,44.8,30.24,WNW,294,0.0,0.0,82,0.00,,---,0.00,VWS V14.01,2013-02-01 23:35:00,
2013-02-01 17:40:00,49.5,44.6,30.24,WNW,293,0.0,0.0,83,0.00,,---,0.00,VWS V14.01,2013-02-01 23:40:00,
2013-02-01 17:45:00,48.9,44.0,30.24,WNW,293,0.0,0.0,83,0.00,,---,0.00,VWS V14.01,2013-02-01 23:45:00,
2013-02-01 17:50:00,48.4,44.1,30.24,WNW,294,0.0,0.0,85,0.00,,---,0.00,VWS V14.01,2013-02-01 23:50:00,
2013-02-01 17:55:00,47.9,43.9,30.24,WNW,293,0.0,0.0,86,0.00,,---,0.00,VWS V14.01,2013-02-01 23:55:00,
2013-02-01 18:00:00,47.5,43.8,30.24,WNW,294,0.0,0.0,87,0.00,,---,0.00,VWS V14.01,2013-02-02 00:00:00,
2013-02-01 18:05:00,47.1,43.4,30.24,WNW,293,0.0,0.0,87,0.00,,---,0.00,VWS V14.01,2013-02-02 00:05:00,
2013-02-01 18:10:00,46.6,42.9,30.24,WNW,293,0.0,0.0,87,0.00,,---,0.00,VWS V14.01,2013-02-02 00:10:00,
2013-02-01 18:15:00,46.2,42.8,30.25,WNW,293,0.0,0.0,88,0.00,,---,0.00,VWS V14.01,2013-02-02 00:15:00,
2013-02-01 18:20:00,45.9,42.8,30.25,WNW,294,0.0,0.0,89,0.00,,---,0.00,VWS V14.01,2013-02-02 00:20:00,
2013-02-01 18:25:00,45.5,42.5,30.25,WNW,294,0.0,0.0,89,0.00,,---,0.00,VWS V14.01,2013-02-02 00:25:00,
2013-02-01 18:30:00,45.2,42.5,30.25,WNW,294,0.0,0.0,90,0.00,,---,0.00,VWS V14.01,2013-02-02 00:30:00,
2013-02-01 18:35:00,44.9,42.2,30.25,WNW,293,0.0,0.0,90,0.00,,---,0.00,VWS V14.01,2013-02-02 00:35:00,
2013-02-01 18:40:00,44.6,42.1,30.25,WNW,294,0.0,0.0,91,0.00,,---,0.00,VWS V14.01,2013-02-02 00:40:00,
2013-02-01 18:45:00,44.3,41.8,30.25,WNW,297,0.0,0.0,91,0.00,,---,0.00,VWS V14.01,2013-02-02 00:45:00,
2013-02-01 18:50:00,44.0,41.5,30.25,WNW,297,0.0,0.0,91,0.00,,---,0.00,VWS V14.01,2013-02-02 00:50:00,
2013-02-01 18:55:00,43.6,41.4,30.25,WNW,296,0.0,0.0,92,0.00,,---,0.00,VWS V14.01,2013-02-02 00:55:00,
2013-02-01 19:00:00,43.4,41.2,30.25,WNW,296,0.0,0.0,92,0.00,,---,0.00,VWS V14.01,2013-02-02 01:00:00,
2013-02-01 19:05:00,43.2,41.0,30.25,WNW,297,0.0,0.0,92,0.00,,---,0.00,VWS V14.01,2013-02-02 01:05:00,
2013-02-01 19:10:00,43.1,41.2,30.25,WNW,297,0.0,0.0,93,0.00,,---,0.00,VWS V14.01,2013-02-02 01:10:00,
2013-02-01 19:15:00,42.8,40.9,30.25,WNW,297,0.0,0.0,93,0.00,,---,0.00,VWS V14.01,2013-02-02 01:15:00,
2013-02-01 19:20:00,42.6,40.7,30.25,WNW,297,0.0,0.0,93,0.00,,---,0.00,VWS V14.01,2013-02-02 01:20:00,
2013-02-01 19:25:00,42.4,40.5,30.25,WNW,297,0.0,0.0,93,0.00,,---,0.00,VWS V14.01,2013-02-02 01:25:00,
2013-02-01 19:30:00,42.2,40.3,30.25,WNW,297,0.0,0.0,93,0.00,,---,0.00,VWS V14.01,2013-02-02 01:30:00,
2013-02-01 19:35:00,42.1,40.2,30.25,WNW,297,0.0,0.0,93,0.00,,---,0.00,VWS V14.01,2013-02-02 01:35:00,
2013-02-01 19:40:00,42.0,40.4,30.25,WNW,296,0.0,0.0,94,0.00,,---,0.00,VWS V14.01,2013-02-02 01:40:00,
2013-02-01 19:45:00,41.9,40.3,30.25,WNW,297,0.0,0.0,94,0.00,,---,0.00,VWS V14.01,2013-02-02 01:45:00,
2013-02-01 19:50:00,41.8,40.2,30.26,WNW,297,0.0,0.0,94,0.00,,---,0.00,VWS V14.01,2013-02-02 01:50:00,
2013-02-01 19:55:00,41.7,40.1,30.26,WNW,297,0.0,0.0,94,0.00,,---,0.00,VWS V14.01,2013-02-02 01:55:00,
2013-02-01 20:00:00,41.5,39.9,30.26,WNW,297,0.0,0.0,94,0.00,,---,0.00,VWS V14.01,2013-02-02 02:00:00,
2013-02-01 20:05:00,41.4,39.5,30.26,WNW,297,0.0,0.0,93,0.00,,---,0.00,VWS V14.01,2013-02-02 02:05:00,
2013-02-01 20:10:00,41.4,39.8,30.26,WNW,297,0.0,0.0,94,0.00,,---,0.00,VWS V14.01,2013-02-02 02:10:00,
2013-02-01 20:15:00,41.3,39.7,30.26,WNW,296,0.0,0.0,94,0.00,,---,0.00,VWS V14.01,2013-02-02 02:15:00,
2013-02-01 20:20:00,41.2,39.6,30.26,WNW,297,0.0,0.0,94,0.00,,---,0.00,VWS V14.01,2013-02-02 02:20:00,
2013-02-01 20:25:00,41.1,39.5,30.26,WNW,297,0.0,0.0,94,0.00,,---,0.00,VWS V14.01,2013-02-02 02:25:00,
2013-02-01 20:30:00,40.8,39.2,30.26,WNW,297,0.0,0.0,94,0.00,,---,0.00,VWS V14.01,2013-02-02 02:30:00,
2013-02-01 20:35:00,40.5,38.9,30.26,WNW,297,0.0,0.0,94,0.00,,---,0.00,VWS V14.01,2013-02-02 02:35:00,
2013-02-01 20:40:00,40.3,38.7,30.26,WNW,297,0.0,0.0,94,0.00,,---,0.00,VWS V14.01,2013-02-02 02:40:00,
2013-02-01 20:45:00,40.1,38.5,30.26,WNW,297,0.0,0.0,94,0.00,,---,0.00,VWS V14.01,2013-02-02 02:45:00,
2013-02-01 20:50:00,40.0,38.4,30.26,WNW,297,0.0,0.0,94,0.00,,---,0.00,VWS V14.01,2013-02-02 02:50:00,
2013-02-01 20:55:00,40.0,38.4,30.26,WNW,297,0.0,0.0,94,0.00,,---,0.00,VWS V14.01,2013-02-02 02:55:00,
2013-02-01 21:00:00,39.9,38.3,30.27,WNW,297,0.0,0.0,94,0.00,,---,0.00,VWS V14.01,2013-02-02 03:00:00,
2013-02-01 21:05:00,39.9,38.0,30.26,WNW,297,0.0,0.0,93,0.00,,---,0.00,VWS V14.01,2013-02-02 03:05:00,
2013-02-01 21:10:00,39.7,37.8,30.27,WNW,297,0.0,0.0,93,0.00,,---,0.00,VWS V14.01,2013-02-02 03:10:00,
2013-02-01 21:15:00,39.6,37.8,30.27,WNW,297,0.0,0.0,93,0.00,,---,0.00,VWS V14.01,2013-02-02 03:15:00,
2013-02-01 21:20:00,39.4,37.8,30.27,WNW,297,0.0,0.0,94,0.00,,---,0.00,VWS V14.01,2013-02-02 03:20:00,
2013-02-01 21:25:00,39.2,37.6,30.27,WNW,296,0.0,0.0,94,0.00,,---,0.00,VWS V14.01,2013-02-02 03:25:00,
2013-02-01 21:30:00,39.1,37.5,30.27,WNW,297,0.0,0.0,94,0.00,,---,0.00,VWS V14.01,2013-02-02 03:30:00,
2013-02-01 21:35:00,38.8,37.2,30.27,WNW,297,0.0,0.0,94,0.00,,---,0.00,VWS V14.01,2013-02-02 03:35:00,
2013-02-01 21:40:00,38.5,36.9,30.27,WNW,297,0.0,0.0,94,0.00,,---,0.00,VWS V14.01,2013-02-02 03:40:00,
2013-02-01 21:45:00,38.3,36.7,30.27,WNW,297,0.0,0.0,94,0.00,,---,0.00,VWS V14.01,2013-02-02 03:45:00,
2013-02-01 21:50:00,38.1,36.5,30.27,WNW,297,0.0,0.0,94,0.00,,---,0.00,VWS V14.01,2013-02-02 03:50:00,
2013-02-01 21:55:00,37.9,36.3,30.27,WNW,297,0.0,0.0,94,0.00,,---,0.00,VWS V14.01,2013-02-02 03:55:00,
2013-02-01 22:00:00,37.6,36.0,30.27,WNW,296,0.0,0.0,94,0.00,,---,0.00,VWS V14.01,2013-02-02 04:00:00,
2013-02-01 22:05:00,37.4,35.8,30.27,WNW,297,0.0,0.0,94,0.00,,---,0.00,VWS V14.01,2013-02-02 04:05:00,
2013-02-01 22:10:00,37.2,35.6,30.27,WNW,296,0.0,0.0,94,0.00,,---,0.00,VWS V14.01,2013-02-02 04:10:00,
2013-02-01 22:15:00,36.9,35.3,30.27,WNW,297,0.0,0.0,94,0.00,,---,0.00,VWS V14.01,2013-02-02 04:15:00,
2013-02-01 22:20:00,36.8,35.2,30.27,WNW,297,0.0,0.0,94,0.00,,---,0.00,VWS V14.01,2013-02-02 04:20:00,
2013-02-01 22:25:00,36.6,35.3,30.27,WNW,297,0.0,0.0,95,0.00,,---,0.00,VWS V14.01,2013-02-02 04:25:00,
2013-02-01 22:30:00,36.4,35.1,30.27,WNW,297,0.0,0.0,95,0.00,,---,0.00,VWS V14.01,2013-02-02 04:30:00,
2013-02-01 22:35:00,36.3,35.0,30.27,WNW,297,0.0,0.0,95,0.00,,---,0.00,VWS V14.01,2013-02-02 04:35:00,
2013-02-01 22:40:00,36.1,34.8,30.26,WNW,297,0.0,0.0,95,0.00,,---,0.00,VWS V14.01,2013-02-02 04:40:00,
2013-02-01 22:45:00,36.1,34.8,30.26,WNW,297,0.0,0.0,95,0.00,,---,0.00,VWS V14.01,2013-02-02 04:45:00,
2013-02-01 22:50:00,36.0,34.7,30.26,WNW,297,0.0,0.0,95,0.00,,---,0.00,VWS V14.01,2013-02-02 04:50:00,
2013-02-01 22:55:00,36.0,34.7,30.26,WNW,297,0.0,0.0,95,0.00,,---,0.00,VWS V14.01,2013-02-02 04:55:00,
2013-02-01 23:00:00,36.0,35.0,30.26,WNW,296,0.0,0.0,96,0.00,,---,0.00,VWS V14.01,2013-02-02 05:00:00,
2013-02-01 23:05:00,36.1,35.1,30.26,WNW,297,0.0,0.0,96,0.00,,---,0.00,VWS V14.01,2013-02-02 05:05:00,
2013-02-01 23:10:00,36.0,35.0,30.26,WNW,296,0.0,0.0,96,0.00,,---,0.00,VWS V14.01,2013-02-02 05:10:00,
2013-02-01 23:15:00,35.9,34.9,30.26,WNW,297,0.0,0.0,96,0.00,,---,0.00,VWS V14.01,2013-02-02 05:15:00,
2013-02-01 23:20:00,35.9,34.9,30.26,WNW,297,0.0,0.0,96,0.00,,---,0.00,VWS V14.01,2013-02-02 05:20:00,
2013-02-01 23:25:00,35.8,34.8,30.26,WNW,297,0.0,0.0,96,0.00,,---,0.00,VWS V14.01,2013-02-02 05:25:00,
2013-02-01 23:30:00,35.7,34.7,30.26,WNW,297,0.0,0.0,96,0.00,,---,0.00,VWS V14.01,2013-02-02 05:30:00,
2013-02-01 23:35:00,35.7,34.7,30.26,WNW,297,0.0,0.0,96,0.00,,---,0.00,VWS V14.01,2013-02-02 05:35:00,
2013-02-01 23:40:00,35.6,34.6,30.26,WNW,297,0.0,0.0,96,0.00,,---,0.00,VWS V14.01,2013-02-02 05:40:00,
2013-02-01 23:45:00,35.5,34.5,30.26,WNW,296,0.0,0.0,96,0.00,,---,0.00,VWS V14.01,2013-02-02 05:45:00,
2013-02-01 23:50:00,35.5,34.5,30.26,WNW,296,0.0,0.0,96,0.00,,---,0.00,VWS V14.01,2013-02-02 05:50:00,
2013-02-01 23:55:00,35.4,34.4,30.26,WNW,297,0.0,0.0,96,0.00,,---,0.00,VWS V14.01,2013-02-02 05:55:00,